Zurück zum Katalog

STARLINK-32019

AktivKommunikationVLEO
NORAD 60147·PAYLOAD·🇺🇸 United States

Gestartet Jun 27, 2024 von Cape Canaveral Space Force Station

Loading…

Nächste Überflüge (nächste 24 Stunden)

TLE

AktuellSource: CelesTrak SupGP

Epoche: Sep 14, 2026, 14:40 UTC

1 60147C 24120N   26257.61159722  .00061308  00000+0  18116-2 0  2575
2 60147  53.1578 159.0380 0001285 103.1172  70.3043 15.34356484    17

Verfolge STARLINK-32019 in Echtzeit mit AllMySat

Download on the App Store